Change the Weather History Date:

Friday, March 23, 2012

  Actual Average Record
Temperature  
Mean Temperature 65 °F 49 °F  
Max Temperature 68 °F 61 °F 81 °F (2007)
Min Temperature 61 °F 38 °F 16 °F (1960)
Degree Days  
Heating Degree Days 0 16  
Month to date heating degree days 218 433  
Since 1 July heating degree days 3253 3709  
Cooling Degree Days 0 0  
Month to date cooling degree days 19 0  
Year to date cooling degree days 19 0  
Growing Degree Days 14 (Base 50)    
Moisture  
Dew Point 60 °F    
Average Humidity 87    
Maximum Humidity 100    
Minimum Humidity 73    
Precipitation  
Precipitation 0.40 in 0.13 in 1.45 in (1993)
Month to date precipitation 3.37 3.00  
Year to date precipitation 9.98 10.25  
Sea Level Pressure  
Sea Level Pressure 29.99 in    
Wind  
Wind Speed 3 mph (South)    
Max Wind Speed 10 mph    
Max Gust Speed 16 mph    
Visibility 8 miles    
Events Rain    
T = Trace of Precipitation, MM = Missing Value Source: NWS Daily Summary

Daily Weather History Graph

Daily Weather History Graph

Search for Another Location

Airport or City:

Trip Planner

Search our weather history database for the weather conditions in past years. The results will help you decide how hot, cold, wet, or windy it might be!

Date:

Astronomy

Mar. 23, 2012 Rise Set
Actual Time 7:34 AM EDT 7:51 PM EDT
Civil Twilight 7:08 AM EDT 8:17 PM EDT
Nautical Twilight 6:38 AM EDT 8:47 PM EDT
Astronomical Twilight 6:07 AM EDT 9:18 PM EDT
Moon 7:45 AM EDT (3/23) 9:09 PM EDT (3/23)
Length of Visible Light 13h 08m
Length of Day
12h 16m
New Moon, 1% of the Moon is Illuminated
Mar 23
New Moon
Mar 30
First Quarter
Apr 6
Full
Apr 13
Last Quarter
Apr 21
New

Hourly Weather History & Observations

Time (EDT) Temp. Dew Point Humidity Pressure Visibility Wind Dir Wind Speed Gust Speed Precip Events Conditions
12:53 AM 64.9 °F 55.9 °F 73% 30.08 in 10.0 mi Calm Calm - N/A   Clear
1:53 AM 64.0 °F 55.9 °F 75% 30.08 in 10.0 mi Calm Calm - N/A   Mostly Cloudy
2:53 AM 66.0 °F 57.0 °F 73% 30.07 in 10.0 mi Calm Calm - N/A   Overcast
3:53 AM 63.0 °F 57.9 °F 84% 30.06 in 10.0 mi Calm Calm - 0.00 in Rain Light Rain
4:53 AM 62.1 °F 59.0 °F 90% 30.04 in 10.0 mi Calm Calm - 0.00 in   Overcast
5:53 AM 61.0 °F 59.0 °F 93% 30.04 in 10.0 mi Calm Calm - N/A   Overcast
6:53 AM 63.0 °F 57.0 °F 81% 30.03 in 10.0 mi Calm Calm - N/A   Overcast
7:53 AM 62.1 °F 57.0 °F 84% 30.04 in 10.0 mi Calm Calm - 0.00 in Rain Light Rain
8:53 AM 63.0 °F 59.0 °F 87% 30.03 in 10.0 mi Calm Calm - 0.00 in   Overcast
9:53 AM 64.4 °F 59.0 °F 83% 30.05 in 10.0 mi Calm Calm - N/A   Overcast
10:53 AM 66.9 °F 60.1 °F 79% 30.02 in 10.0 mi Calm Calm - 0.01 in   Overcast
11:53 AM 64.9 °F 61.0 °F 87% 30.04 in 4.0 mi SW 4.6 mph - 0.05 in Rain Light Rain
12:04 PM 64.4 °F 60.8 °F 88% 30.06 in 2.5 mi South 8.1 mph - 0.05 in Rain Rain
12:15 PM 64.4 °F 60.8 °F 88% 30.06 in 3.0 mi South 5.8 mph - 0.08 in Rain Rain
12:33 PM 62.6 °F 62.6 °F 100% 30.05 in 1.8 mi South 5.8 mph - 0.17 in Rain Rain
12:46 PM 62.6 °F 62.6 °F 100% 30.04 in 3.0 mi South 5.8 mph - 0.21 in Rain Light Rain
12:53 PM 63.0 °F 62.1 °F 97% 30.02 in 5.0 mi South 6.9 mph - 0.21 in Rain Light Rain
1:53 PM 66.9 °F 63.0 °F 87% 29.99 in 10.0 mi SSE 4.6 mph - 0.01 in Rain Light Rain
2:53 PM 66.0 °F 62.1 °F 87% 29.95 in 4.0 mi South 6.9 mph - 0.02 in Rain Rain
3:53 PM 66.0 °F 63.0 °F 90% 29.93 in 10.0 mi South 4.6 mph - 0.02 in   Overcast
4:53 PM 64.9 °F 62.1 °F 90% 29.91 in 5.0 mi South 5.8 mph - 0.04 in Rain Rain
5:53 PM 64.9 °F 62.1 °F 90% 29.90 in 10.0 mi SSE 4.6 mph - 0.04 in   Overcast
6:53 PM 66.9 °F 62.1 °F 84% 29.87 in 10.0 mi SSE 4.6 mph - 0.00 in   Clear
7:53 PM 64.9 °F 61.0 °F 87% 29.86 in 10.0 mi SSE 3.5 mph - N/A   Clear
8:53 PM 64.0 °F 60.1 °F 87% 29.85 in 10.0 mi SSE 3.5 mph - N/A   Clear
9:53 PM 64.0 °F 59.0 °F 84% 29.86 in 10.0 mi SSE 5.8 mph - N/A   Clear
11:53 PM 63.0 °F 57.9 °F 84% 29.82 in 10.0 mi SSE 4.6 mph - N/A   Clear